Regional Weather Roundup
Issued by NWS Cleveland, OH

Home | Current Version | Previous Version | Graphics & Text | Print | Product List | Glossary On
Versions: 1 2 3 4 5 6 7 8 9 10 11 12 13 14 15 16 17 18 19 20 21 22 23 24 25 26 27 28 29 30 31 32 33 34 35 36 37 38 39 40 41 42 43 44 45 46 47 48 49 50
277
ASUS41 KCLE 011610
RWRCLE
OHIO REGIONAL WEATHER ROUNDUP
NATIONAL WEATHER SERVICE WILMINGTON, OH
1200 PM EDT SUN MAY 01 2016

NOTE: "FAIR" INDICATES FEW OR NO CLOUDS BELOW 12,000 FEET WITH NO
SIGNIFICANT WEATHER AND/OR OBSTRUCTIONS TO VISIBILITY.

OHZ001>008-015>018-024>027-034-035-043-044-011700-
   NORTHWEST OHIO

CITY           SKY/WX    TMP DP  RH WIND       PRES   REMARKS
DEFIANCE       CLOUDY    54  51  90 NE6       29.97R FOG
FINDLAY        CLOUDY    61  53  75 N3        29.94R
TOLEDO EXPRESS FOG       51  51 100 E6        29.95F VSB 1
TOLEDO EXEC    CLOUDY    52  50  93 NE7       29.97S
LIMA           PTSUNNY   63  62  97 W3        29.94S FOG
$$

OHZ009>014-019>023-028>033-038-089-011700-
   NORTHEAST OHIO

CITY           SKY/WX    TMP DP  RH WIND       PRES   REMARKS
CLE-HOPKINS    CLOUDY    59  56  89 W3        29.96S
CLE-LAKEFRONT  FOG       50  49  96 CALM      29.94S VSB 1/4
CUY CO. ARPT   CLOUDY    59  55  88 NW12      29.95R FOG
LORAIN-ELYRIA  CLOUDY    57  53  86 NW6       29.95S
ASHTABULA      CLOUDY    60  58  92 W8        29.93S
AKRON-CANTON   CLOUDY    65  59  81 SW8       29.94S
WOOSTER        PTSUNNY   65  60  84 W10       29.95S
MANSFIELD      CLOUDY    63  59  87 VRB7      29.95R
YOUNGSTOWN     PTSUNNY   65  60  84 W7        29.94R
$$

OHZ042-051>053-060>062-070>072-077>081-011700-
  SOUTHWEST OHIO

CITY           SKY/WX    TMP DP  RH WIND       PRES   REMARKS
CINC-COVINGTON PTSUNNY   71  62  73 S6        29.95R
CINC-LUNKEN    PTSUNNY   73  64  73 S8        29.94S
HAMILTON       FAIR      73  62  68 SW6       29.95R
DAYTON         PTSUNNY   69  62  78 SW6       29.95S
WRIGHT-PAT AFB CLOUDY    69  64  85 VRB3      29.94S
DAYTON GENERAL PTSUNNY   69  61  75 VRB6      29.94R
WILMINGTON     PTSUNNY   71  62  73 S8        29.94S
$$

OHZ036-037-039>041-045>050-054>059-063>069-073>076-082>088-011700-
  CENTRAL AND SOUTHEAST OHIO

CITY           SKY/WX    TMP DP  RH WIND       PRES   REMARKS
COLUMBUS       CLOUDY    64  61  90 S9        29.94F
OSU AIRPORT    PTSUNNY   68  62  81 S8        29.94F
BOLTON FIELD   CLOUDY    64  63  94 S7        29.96S
RICKENBACK AFB CLOUDY    67  62  86 CALM      29.94F
NEWARK         PTSUNNY   68  60  75 SW6       29.94F
MARION         PTSUNNY   67  60  78 NW5       29.95S
LANCASTER      PTSUNNY   68  62  81 SW6       29.95F
ZANESVILLE     LGT RAIN  67  61  81 W6        29.97S
NEW PHILLY     CLOUDY    65  59  81 VRB5      29.96F
$$




USA.gov is the U.S. government's official web portal to all federal, state and local government web resources and services.